Probability
0 0 0 0 0 0 0 0 0 0 0 0 0 0 0 0 0 0 0 0 0 1 4 9 19 31 42 51 56 54 46 37 31 28 25 20 15 13 11 7 3 1 2 4
0 0 0 0 0 0 0 0 0 0 0 0 0 0 0 0 0 0 0 0 0 1 3 7 14 22 33 45 52 51 44 37 33 32 30 25 22 19 15 10 7 5 5 7
0 0 0 0 0 0 0 0 0 0 0 0 0 0 0 0 0 0 0 0 0 0 2 4 7 11 19 31 40 43 41 38 37 38 35 31 29 26 19 15 13 11 11 10
0 0 0 0 0 0 0 0 0 0 0 0 0 0 0 0 0 0 0 0 0 0 1 2 3 4 7 14 23 28 31 33 35 37 37 35 31 26 21 18 16 15 14 13
0 0 0 0 0 0 0 0 0 0 0 0 0 0 0 0 0 0 0 0 0 0 0 1 1 1 2 5 9 12 15 19 24 28 31 30 28 23 19 16 14 12 11 10
0 0 0 0 0 0 0 0 0 0 0 0 0 0 0 0 0 0 0 0 0 0 0 0 0 0 1 1 3 3 5 7 11 15 18 21 22 19 14 11 9 6 5 5
0 0 0 0 0 0 0 0 0 0 0 0 0 0 0 0 0 0 0 0 0 0 0 0 0 0 0 0 1 1 2 3 4 6 9 11 12 12 7 4 3 2 2 2
0 0 0 0 0 0 0 0 0 0 0 0 0 0 0 0 0 0 0 0 0 0 0 0 0 0 0 0 0 0 1 1 1 2 3 4 4 3 2 1 1 0 1 1
0 0 0 0 0 0 0 0 0 0 0 0 0 0 0 0 0 0 0 0 0 0 0 0 0 0 0 0 0 0 0 0 0 0 0 0 0 0 0 0 0 0 0 0
0 0 0 0 0 0 0 0 0 0 0 0 0 0 0 0 0 0 0 0 0 0 0 0 0 0 0 0 0 0 0 0 0 0 0 0 0 0 0 0 0 0 0 0
0 0 0 0 0 0 0 0 0 0 0 0 0 0 0 0 0 0 0 0 0 0 0 0 0 0 0 0 0 0 0 0 0 0 0 0 0 0 0 0 0 0 0 0
0 0 0 0 0 0 0 0 0 0 0 0 0 0 0 0 0 0 0 0 0 0 0 0 0 0 0 0 0 0 0 0 0 0 0 0 0 0 0 0 0 0 0 0
0 0 0 0 0 0 0 0 0 0 0 0 0 0 0 0 0 0 0 0 0 0 0 0 0 0 0 0 0 0 0 0 0 0 0 0 0 0 0 0 0 0 0 0
0 0 0 0 0 0 0 0 0 0 0 0 0 0 0 0 0 0 0 0 0 0 0 0 0 0 0 0 0 0 0 0 0 0 0 0 0 0 0 0 0 0 0 0
0 0 0 0 0 0 0 0 0 0 0 0 0 0 0 0 0 0 0 0 0 0 0 0 0 0 0 0 0 0 0 0 0 0 0 0 0 0 0 0 0 0 0 0
0 0 0 0 0 0 0 0 0 0 0 0 0 0 0 0 0 0 0 0 0 0 0 0 0 0 0 0 0 0 0 0 0 0 0 0 0 0 0 0 0 0 0 0
0 0 0 0 0 0 0 0 0 0 0 0 0 0 0 0 0 0 0 0 0 0 0 0 0 0 0 0 0 0 0 0 0 0 0 0 0 0 0 0 0 0 0 0
0 0 0 0 0 0 0 0 0 0 0 0 0 0 0 0 0 0 0 0 0 0 0 0 0 0 0 0 0 0 0 0 0 0 0 0 0 0 0 0 0 0 0 0
0 0 0 0 0 0 0 0 0 0 0 0 0 0 0 0 0 0 0 0 0 0 0 0 0 0 0 0 0 0 0 0 0 0 0 0 0 0 0 0 0 0 0 0
0 0 0 0 0 0 0 0 0 0 0 0 0 0 0 0 0 0 0 0 0 0 0 0 0 0 0 0 0 0 0 0 0 0 0 0 0 0 0 0 0 0 0 0
0 0 0 0 0 0 0 0 0 0 0 0 0 0 0 0 0 0 0 0 0 0 0 0 0 0 0 0 0 0 0 0 0 0 0 0 0 0 0 0 0 0 0 0
0 0 0 0 0 0 0 0 0 0 0 0 0 0 0 0 0 0 0 0 0 0 0 0 0 0 0 0 0 0 0 0 0 0 0 0 0 0 0 0 0 0 0 0
0 0 0 0 0 0 0 0 0 0 0 0 0 0 0 0 0 0 0 0 0 0 0 0 0 0 0 0 0 0 0 0 0 0 0 0 0 0 0 0 0 0 0 0
0 0 0 0 0 0 0 0 0 0 0 0 0 0 0 0 0 0 0 0 0 0 0 0 0 0 0 0 0 0 0 0 0 0 0 0 0 0 0 0 0 0 0 0
0 0 0 0 0 0 0 0 0 0 0 0 0 0 0 0 0 0 0 0 0 0 0 0 0 0 0 0 0 0 0 0 0 0 0 0 0 0 0 0 0 0 0 0
0 0 0 0 0 0 0 0 0 0 0 0 0 0 0 0 0 0 0 0 0 0 0 0 0 0 0 0 0 0 0 0 0 0 0 0 0 0 0 0 0 0 0 0
Wind_Speed
3 2 5 7 9 6 6 9 9 8 9 10 11 12 10 7 7 8 9 8 7 6 5 6 6 5 5 5 6 7 7 6 5 4 4 4 3 3 2 2 2 1 1 1
2 3 4 3 5 8 7 8 7 4 8 8 9 11 10 9 9 9 10 10 8 7 6 6 6 5 5 6 6 6 7 6 5 4 4 3 3 3 3 2 2 2 2 1
1 1 1 3 5 7 7 6 5 4 4 5 5 8 11 10 10 10 9 9 9 9 9 8 8 7 6 6 6 5 6 6 5 5 3 3 2 2 2 2 2 2 2 2
1 1 2 4 6 6 5 4 3 4 5 5 7 5 10 12 13 13 11 10 10 9 8 9 9 8 7 5 4 5 5 5 5 5 5 5 4 4 3 3 3 3 3 3
1 2 3 5 5 4 1 0 2 3 4 3 5 5 6 10 11 13 12 11 10 9 8 9 10 9 7 6 5 4 4 4 4 4 4 4 3 2 3 3 4 3 3 4
1 1 2 2 1 2 1 1 0 2 2 4 7 7 5 8 12 11 10 10 10 8 7 7 7 8 7 6 5 5 5 5 4 4 4 4 4 4 4 4 3 2 2 3
2 3 2 1 2 2 3 4 2 3 4 6 7 6 6 3 4 5 6 6 6 6 6 6 8 8 8 8 6 5 6 6 5 5 4 4 4 4 4 3 3 3 2 2
2 3 5 3 3 3 5 4 2 3 4 3 4 6 4 3 4 4 2 2 2 3 5 6 8 8 8 8 7 6 6 6 6 5 5 5 5 4 3 4 4 3 3 3
1 1 3 3 2 2 4 5 3 3 3 2 4 4 3 4 4 3 3 2 2 2 3 4 7 8 9 8 8 7 7 6 6 6 6 6 5 5 5 5 4 4 4 3
2 1 2 2 1 3 2 2 2 2 2 2 4 6 5 7 6 4 3 3 2 2 2 3 5 7 7 8 7 6 7 7 6 6 6 5 5 5 5 5 5 4 4 3
2 1 2 3 4 4 4 3 3 2 2 1 1 0 2 5 6 5 3 3 2 2 2 3 4 6 6 7 7 7 7 7 7 7 7 6 5 5 5 4 5 4 4 3
2 1 2 4 2 2 4 5 4 2 2 2 1 1 3 6 5 5 4 3 3 3 3 3 5 5 6 7 6 6 7 7 6 6 7 6 6 5 5 5 4 4 3 3
1 1 1 2 2 3 4 6 6 3 1 2 2 2 2 5 4 3 2 2 2 3 3 4 5 5 6 6 6 6 6 6 6 6 7 6 6 5 5 5 4 4 4 3
2 2 3 2 1 3 4 6 6 5 4 4 5 4 3 1 1 1 0 1 1 3 4 4 4 5 6 6 7 7 6 7 7 7 6 6 6 5 5 5 5 4 3 3
1 3 3 5 4 2 4 6 7 8 7 6 5 6 5 3 2 2 2 2 1 1 3 4 5 5 6 7 7 7 7 7 7 7 6 6 6 6 6 5 4 4 3 3
1 2 3 4 4 4 5 7 8 8 9 10 10 10 6 5 4 4 4 3 3 3 3 5 6 6 7 7 8 8 8 7 7 7 6 6 6 6 5 5 4 4 3 3
1 2 2 3 2 2 6 7 9 8 7 8 10 7 4 5 5 4 4 4 4 3 2 3 5 5 6 7 8 9 8 7 7 7 7 7 7 6 6 5 5 4 4 3
3 2 2 3 1 4 3 1 1 4 5 5 5 5 4 4 4 3 4 4 4 3 2 2 3 4 5 6 7 8 8 8 8 7 7 8 7 7 6 5 5 4 4 3
4 3 2 2 3 4 1 1 1 1 2 2 3 4 4 4 4 2 4 4 4 3 3 2 2 2 4 5 7 8 8 8 8 8 8 8 8 8 7 6 6 4 4 4
3 3 2 2 3 2 2 3 3 2 0 6 6 6 6 5 3 2 5 5 5 5 4 3 2 1 2 4 7 8 8 8 8 8 7 7 8 8 8 7 6 4 4 4
2 3 4 4 3 2 3 3 2 1 1 6 6 6 6 4 3 4 5 5 4 4 4 4 3 3 2 3 5 6 6 7 6 6 7 7 7 7 7 6 5 5 5 5
2 2 3 2 3 2 4 3 3 3 4 5 6 6 6 5 5 4 4 3 3 4 4 4 3 3 3 3 4 4 4 4 6 6 6 6 6 6 6 6 6 6 6 6
0 1 1 1 1 1 2 3 3 4 4 5 6 6 6 6 5 4 3 2 2 2 3 2 2 2 2 2 3 4 3 5 6 6 6 6 6 6 6 7 7 6 6 5
1 1 2 2 1 2 3 4 6 6 6 6 6 7 6 6 5 5 3 2 2 1 2 2 1 1 1 1 2 3 4 5 6 6 6 6 6 6 6 6 6 6 6 6
2 2 2 3 2 3 3 6 7 7 7 7 7 6 6 6 5 5 3 2 2 1 1 1 1 0 0 1 2 3 4 5 5 5 5 5 6 6 6 6 6 7 6 7
2 1 1 1 3 3 4 6 8 7 7 7 8 8 6 6 6 5 3 2 2 1 1 1 1 1 0 1 2 3 4 5 5 5 5 5 5 5 5 5 4 8 8 11
Wind_Direction
178 189 205 203 215 241 223 211 207 200 180 193 214 229 232 218 214 227 234 232 218 199 178 156 155 166 168 171 172 173 170 177 167 161 165 163 168 162 149 138 135 141 142 144
163 219 236 238 239 258 252 223 217 194 181 192 214 230 232 221 221 223 227 227 228 210 180 164 163 169 178 178 181 173 171 170 165 162 159 154 148 145 140 135 125 108 90 78
191 141 201 217 227 229 239 225 207 183 175 208 219 233 229 222 223 228 231 231 227 219 194 174 172 177 183 185 179 172 164 161 158 148 133 117 102 104 136 151 141 120 99 83
250 252 226 209 221 221 224 221 208 186 183 208 201 231 224 215 213 216 218 226 229 223 205 181 174 176 180 173 151 150 151 152 153 150 154 164 168 176 175 152 138 122 101 78
196 185 206 208 221 240 244 325 184 214 229 242 203 233 243 207 210 211 209 214 222 219 206 185 175 170 162 145 138 139 134 138 141 147 154 167 162 148 127 117 122 120 101 83
221 233 242 237 242 267 156 89 175 245 246 246 214 215 258 208 205 202 201 205 208 207 199 180 160 148 139 133 137 143 146 142 137 138 141 147 144 137 131 131 136 126 111 99
185 195 205 221 175 200 188 156 161 183 206 233 206 207 239 222 170 171 185 198 202 192 180 166 155 154 149 149 156 158 153 148 143 139 132 124 125 126 131 131 128 119 108 96
180 194 190 198 206 189 203 211 205 196 197 207 188 214 231 147 109 110 133 172 187 185 173 167 164 161 157 157 161 165 160 149 138 127 113 104 98 96 96 90 92 93 94 89
225 142 154 185 212 230 194 222 256 307 295 209 211 219 200 128 130 152 166 169 187 181 166 166 158 157 156 159 164 165 154 140 132 125 116 107 102 97 95 91 86 85 85 83
318 135 172 169 209 246 252 254 214 204 242 236 211 206 206 165 164 151 144 149 159 153 147 146 147 151 153 154 154 150 143 139 134 127 119 114 107 103 103 99 95 90 86 82
265 180 163 177 211 210 199 223 227 225 262 271 238 239 35 123 126 125 118 105 106 128 143 144 135 139 138 139 142 141 138 135 134 129 122 118 114 109 105 101 99 97 90 84
238 220 206 206 211 259 240 229 216 210 253 258 295 295 67 89 94 100 104 101 97 109 121 132 132 133 137 141 143 143 140 139 138 131 126 124 120 118 116 111 104 100 96 90
294 228 203 194 201 209 241 236 235 235 299 261 241 243 101 103 102 107 111 125 135 138 141 147 147 149 151 152 152 149 148 143 135 130 127 127 130 131 125 117 111 105 101 95
326 272 251 269 300 181 207 222 225 208 207 233 234 252 246 163 141 179 150 116 139 161 163 166 165 166 165 164 160 157 153 145 142 139 140 142 143 136 127 122 118 114 110 107
309 278 273 279 287 271 243 228 221 221 224 230 252 266 283 318 330 319 332 331 302 205 181 179 180 180 174 169 164 159 154 150 149 148 148 148 138 128 123 123 122 121 120 118
260 278 297 280 259 258 257 249 237 235 237 246 262 271 282 298 316 319 323 317 298 263 214 193 188 185 180 175 168 162 159 156 153 153 152 143 134 132 134 135 134 135 131 128
246 273 293 269 246 277 258 238 232 229 230 238 251 261 295 305 315 322 322 309 289 277 251 213 198 192 185 178 168 166 161 152 154 155 151 147 145 145 146 146 144 148 147 140
263 278 270 278 273 247 245 59 225 239 252 256 269 294 304 304 315 328 336 330 319 312 294 256 218 199 185 168 160 155 152 154 158 158 157 155 153 153 150 151 159 156 145 143
227 256 271 273 268 261 209 84 1 267 286 349 321 330 342 349 336 5 10 4 343 329 320 298 253 203 170 161 155 149 152 156 161 167 166 163 160 158 158 165 166 156 150 150
207 234 261 276 283 281 44 25 1 343 30 23 17 5 356 352 340 342 357 2 359 356 355 345 334 56 137 148 143 149 158 164 174 173 166 160 160 161 166 169 163 154 153 158
183 210 227 247 258 276 24 349 338 342 26 2 3 358 353 348 324 320 344 0 1 2 360 1 19 48 74 117 134 152 160 175 170 153 150 153 157 160 160 159 156 155 157 160
205 222 214 222 234 252 16 24 34 11 354 354 352 349 341 329 323 333 344 352 2 9 11 18 38 43 46 78 120 144 160 152 138 140 147 153 155 156 156 156 159 163 166 172
240 350 315 270 231 60 51 53 27 12 353 348 342 334 328 322 323 328 331 341 0 23 20 24 55 62 55 68 112 144 152 141 138 143 152 156 155 156 159 164 168 172 178 184
36 30 310 299 326 20 49 39 21 9 353 338 331 325 325 319 321 322 323 334 353 19 22 24 52 92 128 140 127 145 148 144 148 160 164 164 164 165 170 175 177 183 188 192
304 320 285 272 325 353 41 20 0 348 343 337 333 332 329 324 321 324 325 339 347 359 11 11 6 7 115 139 148 147 152 153 162 168 169 171 175 176 182 188 192 195 201 199
226 233 283 300 18 341 324 343 344 337 337 335 330 326 329 329 320 323 324 337 346 355 2 349 342 333 308 159 166 163 165 167 171 176 180 180 181 182 185 189 202 214 213 218